Location: Macksville High School
(37.9611°N, 99.9654°W)
Time: 19:59:47
(UTC+00:00)

CZ-4B R/B - Pass Details

Date: 17 January 2021
Orbit: 486 x 652 km, 97.9° (Epoch: 26 February)

Event Time Altitude Azimuth Distance (km) Brightness Sun altitude
Rises 12:53:52 0° 353° (N) 2,562 6.0 -11.8°
Reaches altitude 10° 12:56:27 10° 333° (NNW) 1,678 4.9 -11.3°
Maximum altitude 12:58:49 17° 291° (WNW) 1,306 4.1 -10.9°
Drops below altitude 10° 13:01:12 10° 250° (WSW) 1,688 4.8 -10.4°
Sets 13:03:49 0° 229° (SW) 2,585 5.9 -9.9°
